Year,Month,Day,Hour,Minute,Value (Times are PST for temperature in C)
2018,03,09,00,00,6.40
2018,03,09,00,01,6.40
2018,03,09,00,02,6.40
2018,03,09,00,03,6.40
2018,03,09,00,04,6.40
2018,03,09,00,05,6.40
2018,03,09,00,06,6.40
2018,03,09,00,07,6.40
2018,03,09,00,08,6.40
2018,03,09,00,09,6.40
2018,03,09,00,10,6.40
2018,03,09,00,11,6.40
2018,03,09,00,12,6.40
2018,03,09,00,13,6.40
2018,03,09,00,14,6.30
2018,03,09,00,15,6.30
2018,03,09,00,16,6.30
2018,03,09,00,17,6.30
2018,03,09,00,18,6.30
2018,03,09,00,19,6.30
2018,03,09,00,20,6.30
2018,03,09,00,21,6.30
2018,03,09,00,22,6.30
2018,03,09,00,23,6.20
2018,03,09,00,24,6.20
2018,03,09,00,25,6.20
2018,03,09,00,26,6.20
2018,03,09,00,27,6.20
2018,03,09,00,28,6.10
2018,03,09,00,29,6.10
2018,03,09,00,30,6.10
2018,03,09,00,31,6.00
2018,03,09,00,32,6.00
2018,03,09,00,33,6.00
2018,03,09,00,34,6.00
2018,03,09,00,35,6.00
2018,03,09,00,36,5.90
2018,03,09,00,37,5.90
2018,03,09,00,38,6.00
2018,03,09,00,39,6.00
2018,03,09,00,40,6.00
2018,03,09,00,41,6.00
2018,03,09,00,42,6.00
2018,03,09,00,43,6.00
2018,03,09,00,44,6.00
2018,03,09,00,45,6.10
2018,03,09,00,46,6.10
2018,03,09,00,47,6.10
2018,03,09,00,48,6.10
2018,03,09,00,49,6.10
2018,03,09,00,50,6.10
2018,03,09,00,51,6.10
2018,03,09,00,52,6.20
2018,03,09,00,53,6.10
2018,03,09,00,54,6.20
2018,03,09,00,55,6.10
2018,03,09,00,56,6.10
2018,03,09,00,57,6.10
2018,03,09,00,58,6.10
2018,03,09,00,59,6.10
2018,03,09,01,00,6.10
2018,03,09,01,01,6.10
2018,03,09,01,02,6.10
2018,03,09,01,03,6.10
2018,03,09,01,04,6.10
2018,03,09,01,05,6.10
2018,03,09,01,06,6.10
2018,03,09,01,07,6.10
2018,03,09,01,08,6.00
2018,03,09,01,09,6.00
2018,03,09,01,10,5.90
2018,03,09,01,11,5.90
2018,03,09,01,12,5.80
2018,03,09,01,13,5.80
2018,03,09,01,14,5.70
2018,03,09,01,15,5.70
2018,03,09,01,16,5.70
2018,03,09,01,17,5.60
2018,03,09,01,18,5.60
2018,03,09,01,19,5.60
2018,03,09,01,20,5.60
2018,03,09,01,21,5.60
2018,03,09,01,22,5.60
2018,03,09,01,23,5.60
2018,03,09,01,24,5.60
2018,03,09,01,25,5.50
2018,03,09,01,26,5.50
2018,03,09,01,27,5.50
2018,03,09,01,28,5.60
2018,03,09,01,29,5.60
2018,03,09,01,30,5.60
2018,03,09,01,31,5.60
2018,03,09,01,32,5.60
2018,03,09,01,33,5.60
2018,03,09,01,34,5.60
2018,03,09,01,35,5.60
2018,03,09,01,36,5.60
2018,03,09,01,37,5.60
2018,03,09,01,38,5.60
2018,03,09,01,39,5.70
2018,03,09,01,40,5.70
2018,03,09,01,41,5.70
2018,03,09,01,42,5.70
2018,03,09,01,43,5.70
2018,03,09,01,44,5.80
2018,03,09,01,45,5.80
2018,03,09,01,46,5.80
2018,03,09,01,47,5.80
2018,03,09,01,48,5.80
2018,03,09,01,49,5.80
2018,03,09,01,50,5.70
2018,03,09,01,51,5.70
2018,03,09,01,52,5.70
2018,03,09,01,53,5.60
2018,03,09,01,54,5.60
2018,03,09,01,55,5.50
2018,03,09,01,56,5.50
2018,03,09,01,57,5.40
2018,03,09,01,58,5.40
2018,03,09,01,59,5.40
2018,03,09,02,00,5.40
2018,03,09,02,01,5.40
2018,03,09,02,02,5.40
2018,03,09,02,03,5.40
2018,03,09,02,04,5.30
2018,03,09,02,05,5.40
2018,03,09,02,06,5.40
2018,03,09,02,07,5.40
2018,03,09,02,08,5.40
2018,03,09,02,09,5.50
2018,03,09,02,10,5.60
2018,03,09,02,11,5.60
2018,03,09,02,12,5.70
2018,03,09,02,13,5.70
2018,03,09,02,14,5.70
2018,03,09,02,15,5.70
2018,03,09,02,16,5.80
2018,03,09,02,17,5.80
2018,03,09,02,18,5.80
2018,03,09,02,19,5.80
2018,03,09,02,20,5.80
2018,03,09,02,21,5.80
2018,03,09,02,22,5.90
2018,03,09,02,23,5.90
2018,03,09,02,24,5.90
2018,03,09,02,25,5.90
2018,03,09,02,26,6.00
2018,03,09,02,27,6.00
2018,03,09,02,28,5.90
2018,03,09,02,29,5.90
2018,03,09,02,30,5.90
2018,03,09,02,31,5.90
2018,03,09,02,32,5.90
2018,03,09,02,33,5.90
2018,03,09,02,34,5.80
2018,03,09,02,35,5.80
2018,03,09,02,36,5.80
2018,03,09,02,37,5.80
2018,03,09,02,38,5.80
2018,03,09,02,39,5.70
2018,03,09,02,40,5.70
2018,03,09,02,41,5.70
2018,03,09,02,42,5.70
2018,03,09,02,43,5.70
2018,03,09,02,44,5.80
2018,03,09,02,45,5.80
2018,03,09,02,46,5.80
2018,03,09,02,47,5.80
2018,03,09,02,48,5.80
2018,03,09,02,49,5.80
2018,03,09,02,50,5.80
2018,03,09,02,51,5.80
2018,03,09,02,52,5.80
2018,03,09,02,53,5.80
2018,03,09,02,54,5.80
2018,03,09,02,55,5.80
2018,03,09,02,56,5.80
2018,03,09,02,57,5.90
2018,03,09,02,58,5.90
2018,03,09,02,59,5.90
2018,03,09,03,00,5.90
2018,03,09,03,01,5.90
2018,03,09,03,02,5.90
2018,03,09,03,03,5.90
2018,03,09,03,04,6.00
2018,03,09,03,05,6.00
2018,03,09,03,06,6.10
2018,03,09,03,07,6.10
2018,03,09,03,08,6.10
2018,03,09,03,09,6.10
2018,03,09,03,10,6.10
2018,03,09,03,11,6.10
2018,03,09,03,12,6.10
2018,03,09,03,13,6.10
2018,03,09,03,14,6.10
2018,03,09,03,15,6.10
2018,03,09,03,16,6.10
2018,03,09,03,17,6.00
2018,03,09,03,18,6.00
2018,03,09,03,19,6.00
2018,03,09,03,20,6.00
2018,03,09,03,21,6.00
2018,03,09,03,22,6.00
2018,03,09,03,23,6.00
2018,03,09,03,24,6.00
2018,03,09,03,25,6.00
2018,03,09,03,26,6.00
2018,03,09,03,27,6.00
2018,03,09,03,28,6.00
2018,03,09,03,29,6.00
2018,03,09,03,30,6.00
2018,03,09,03,31,6.00
2018,03,09,03,32,6.00
2018,03,09,03,33,6.00
2018,03,09,03,34,6.00
2018,03,09,03,35,6.00
2018,03,09,03,36,6.00
2018,03,09,03,37,6.10
2018,03,09,03,38,6.10
2018,03,09,03,39,6.10
2018,03,09,03,40,6.10
2018,03,09,03,41,6.00
2018,03,09,03,42,6.00
2018,03,09,03,43,6.00
2018,03,09,03,44,6.00
2018,03,09,03,45,6.00
2018,03,09,03,46,5.90
2018,03,09,03,47,5.90
2018,03,09,03,48,5.90
2018,03,09,03,49,5.90
2018,03,09,03,50,5.90
2018,03,09,03,51,5.90
2018,03,09,03,52,5.90
2018,03,09,03,53,5.80
2018,03,09,03,54,5.80
2018,03,09,03,55,5.80
2018,03,09,03,56,5.80
2018,03,09,03,57,5.80
2018,03,09,03,58,5.80
2018,03,09,03,59,5.80
2018,03,09,04,00,5.70
2018,03,09,04,01,5.70
2018,03,09,04,02,5.70
2018,03,09,04,03,5.70
2018,03,09,04,04,5.70
2018,03,09,04,05,5.60
2018,03,09,04,06,5.60
2018,03,09,04,07,5.60
2018,03,09,04,08,5.60
2018,03,09,04,09,5.50
2018,03,09,04,10,5.50
2018,03,09,04,11,5.50
2018,03,09,04,12,5.50
2018,03,09,04,13,5.50
2018,03,09,04,14,5.50
2018,03,09,04,15,5.50
2018,03,09,04,16,5.40
2018,03,09,04,17,5.40
2018,03,09,04,18,5.50
2018,03,09,04,19,5.50
2018,03,09,04,20,5.50
2018,03,09,04,21,5.50
2018,03,09,04,22,5.50
2018,03,09,04,23,5.50
2018,03,09,04,24,5.50
2018,03,09,04,25,5.50
2018,03,09,04,26,5.50
2018,03,09,04,27,5.50
2018,03,09,04,28,5.50
2018,03,09,04,29,5.50
2018,03,09,04,30,5.50
2018,03,09,04,31,5.50
2018,03,09,04,32,5.50
2018,03,09,04,33,5.50
2018,03,09,04,34,5.50
2018,03,09,04,35,5.50
2018,03,09,04,36,5.50
2018,03,09,04,37,5.50
2018,03,09,04,38,5.60
2018,03,09,04,39,5.60
2018,03,09,04,40,5.60
2018,03,09,04,41,5.60
2018,03,09,04,42,5.60
2018,03,09,04,43,5.60
2018,03,09,04,44,5.60
2018,03,09,04,45,5.60
2018,03,09,04,46,5.50
2018,03,09,04,47,5.50
2018,03,09,04,48,5.50
2018,03,09,04,49,5.50
2018,03,09,04,50,5.50
2018,03,09,04,51,5.50
2018,03,09,04,52,5.50
2018,03,09,04,53,5.50
2018,03,09,04,54,5.50
2018,03,09,04,55,5.50
2018,03,09,04,56,5.50
2018,03,09,04,57,5.50
2018,03,09,04,58,5.50
2018,03,09,04,59,5.50
2018,03,09,05,00,5.50
2018,03,09,05,01,5.60
2018,03,09,05,02,5.60
2018,03,09,05,03,5.60
2018,03,09,05,04,5.60
2018,03,09,05,05,5.60
2018,03,09,05,06,5.60
2018,03,09,05,07,5.60
2018,03,09,05,08,5.60
2018,03,09,05,09,5.60
2018,03,09,05,10,5.60
2018,03,09,05,11,5.70
2018,03,09,05,12,5.70
2018,03,09,05,13,5.70
2018,03,09,05,14,5.70
2018,03,09,05,15,5.70
2018,03,09,05,16,5.70
2018,03,09,05,17,5.70
2018,03,09,05,18,5.60
2018,03,09,05,19,5.60
2018,03,09,05,20,5.60
2018,03,09,05,21,5.50
2018,03,09,05,22,5.50
2018,03,09,05,23,5.50
2018,03,09,05,24,5.50
2018,03,09,05,25,5.50
2018,03,09,05,26,5.50
2018,03,09,05,27,5.50
2018,03,09,05,28,5.50
2018,03,09,05,29,5.40
2018,03,09,05,30,5.40
2018,03,09,05,31,5.40
2018,03,09,05,32,5.40
2018,03,09,05,33,5.40
2018,03,09,05,34,5.40
2018,03,09,05,35,5.40
2018,03,09,05,36,5.40
2018,03,09,05,37,5.40
2018,03,09,05,38,5.30
2018,03,09,05,39,5.30
2018,03,09,05,40,5.30
2018,03,09,05,41,5.30
2018,03,09,05,42,5.30
2018,03,09,05,43,5.30
2018,03,09,05,44,5.30
2018,03,09,05,45,5.30
2018,03,09,05,46,5.30
2018,03,09,05,47,5.20
2018,03,09,05,48,5.20
2018,03,09,05,49,5.20
2018,03,09,05,50,5.20
2018,03,09,05,51,5.20
2018,03,09,05,52,5.20
2018,03,09,05,53,5.20
2018,03,09,05,54,5.20
2018,03,09,05,55,5.20
2018,03,09,05,56,5.20
2018,03,09,05,57,5.10
2018,03,09,05,58,5.10
2018,03,09,05,59,5.10
2018,03,09,06,00,5.10
2018,03,09,06,01,5.10
2018,03,09,06,02,5.10
2018,03,09,06,03,5.10
2018,03,09,06,04,5.10
2018,03,09,06,05,5.10
2018,03,09,06,06,5.20
2018,03,09,06,07,5.20
2018,03,09,06,08,5.20
2018,03,09,06,09,5.20
2018,03,09,06,10,5.20
2018,03,09,06,11,5.20
2018,03,09,06,12,5.20
2018,03,09,06,13,5.20
2018,03,09,06,14,5.20
2018,03,09,06,15,5.20
2018,03,09,06,16,5.20
2018,03,09,06,17,5.20
2018,03,09,06,18,5.20
2018,03,09,06,19,5.20
2018,03,09,06,20,5.20
2018,03,09,06,21,5.20
2018,03,09,06,22,5.20
2018,03,09,06,23,5.20
2018,03,09,06,24,5.20
2018,03,09,06,25,5.20
2018,03,09,06,26,5.20
2018,03,09,06,27,5.20
2018,03,09,06,28,5.20
2018,03,09,06,29,5.20
2018,03,09,06,30,5.20
2018,03,09,06,31,5.20
2018,03,09,06,32,5.20
2018,03,09,06,33,5.20
2018,03,09,06,34,5.20
2018,03,09,06,35,5.20
2018,03,09,06,36,5.20
2018,03,09,06,37,5.10
2018,03,09,06,38,5.10
2018,03,09,06,39,5.10
2018,03,09,06,40,5.10
2018,03,09,06,41,5.10
2018,03,09,06,42,5.10
2018,03,09,06,43,5.10
2018,03,09,06,44,5.10
2018,03,09,06,45,5.10
2018,03,09,06,46,5.00
2018,03,09,06,47,5.00
2018,03,09,06,48,5.00
2018,03,09,06,49,4.90
2018,03,09,06,50,4.90
2018,03,09,06,51,4.90
2018,03,09,06,52,4.90
2018,03,09,06,53,4.90
2018,03,09,06,54,4.90
2018,03,09,06,55,4.90
2018,03,09,06,56,4.90
2018,03,09,06,57,4.90
2018,03,09,06,58,4.90
2018,03,09,06,59,4.80
2018,03,09,07,00,4.80
2018,03,09,07,01,4.80
2018,03,09,07,02,4.80
2018,03,09,07,03,4.80
2018,03,09,07,04,4.80
2018,03,09,07,05,4.80
2018,03,09,07,06,4.80
2018,03,09,07,07,4.80
2018,03,09,07,08,4.80
2018,03,09,07,09,4.80
2018,03,09,07,10,4.80
2018,03,09,07,11,4.80
2018,03,09,07,12,4.80
2018,03,09,07,13,4.80
2018,03,09,07,14,4.90
2018,03,09,07,15,4.90
2018,03,09,07,16,4.90
2018,03,09,07,17,4.90
2018,03,09,07,18,4.90
2018,03,09,07,19,5.00
2018,03,09,07,20,4.90
2018,03,09,07,21,5.00
2018,03,09,07,22,5.00
2018,03,09,07,23,4.90
2018,03,09,07,24,5.00
2018,03,09,07,25,5.00
2018,03,09,07,26,5.00
2018,03,09,07,27,5.00
2018,03,09,07,28,5.00
2018,03,09,07,29,5.00
2018,03,09,07,30,5.00
2018,03,09,07,31,5.00
2018,03,09,07,32,5.00
2018,03,09,07,33,5.00
2018,03,09,07,34,5.00
2018,03,09,07,35,5.00
2018,03,09,07,36,5.00
2018,03,09,07,37,5.00
2018,03,09,07,38,5.00
2018,03,09,07,39,5.10
2018,03,09,07,40,5.10
2018,03,09,07,41,5.10
2018,03,09,07,42,5.10
2018,03,09,07,43,5.20
2018,03,09,07,44,5.20
2018,03,09,07,45,5.20
2018,03,09,07,46,5.30
2018,03,09,07,47,5.30
2018,03,09,07,48,5.30
2018,03,09,07,49,5.40
2018,03,09,07,50,5.40
2018,03,09,07,51,5.40
2018,03,09,07,52,5.50
2018,03,09,07,53,5.50
2018,03,09,07,54,5.60
2018,03,09,07,55,5.60
2018,03,09,07,56,5.70
2018,03,09,07,57,5.80
2018,03,09,07,58,5.80
2018,03,09,07,59,5.90
2018,03,09,08,00,5.90
2018,03,09,08,01,6.00
2018,03,09,08,02,6.00
2018,03,09,08,03,6.10
2018,03,09,08,04,6.10
2018,03,09,08,05,6.10
2018,03,09,08,06,6.10
2018,03,09,08,07,6.10
2018,03,09,08,08,6.20
2018,03,09,08,09,6.20
2018,03,09,08,10,6.20
2018,03,09,08,11,6.20
2018,03,09,08,12,6.20
2018,03,09,08,13,6.20
2018,03,09,08,14,6.20
2018,03,09,08,15,6.20
2018,03,09,08,16,6.20
2018,03,09,08,17,6.30
2018,03,09,08,18,6.30
2018,03,09,08,19,6.30
2018,03,09,08,20,6.30
2018,03,09,08,21,6.40
2018,03,09,08,22,6.40
2018,03,09,08,23,6.50
2018,03,09,08,24,6.50
2018,03,09,08,25,6.50
2018,03,09,08,26,6.50
2018,03,09,08,27,6.50
2018,03,09,08,28,6.40
2018,03,09,08,29,6.40
2018,03,09,08,30,6.40
2018,03,09,08,31,6.40
2018,03,09,08,32,6.40
2018,03,09,08,33,6.40
2018,03,09,08,34,6.40
2018,03,09,08,35,6.40
2018,03,09,08,36,6.40
2018,03,09,08,37,6.40
2018,03,09,08,38,6.50
2018,03,09,08,39,6.50
2018,03,09,08,40,6.50
2018,03,09,08,41,6.50
2018,03,09,08,42,6.50
2018,03,09,08,43,6.50
2018,03,09,08,44,6.50
2018,03,09,08,45,6.50
2018,03,09,08,46,6.60
2018,03,09,08,47,6.60
2018,03,09,08,48,6.60
2018,03,09,08,49,6.60
2018,03,09,08,50,6.60
2018,03,09,08,51,6.60
2018,03,09,08,52,6.70
2018,03,09,08,53,6.70
2018,03,09,08,54,6.80
2018,03,09,08,55,6.80
2018,03,09,08,56,6.80
2018,03,09,08,57,6.90
2018,03,09,08,58,7.00
2018,03,09,08,59,7.10
2018,03,09,09,00,7.10
2018,03,09,09,01,7.10
2018,03,09,09,02,7.10
2018,03,09,09,03,7.10
2018,03,09,09,04,7.10
2018,03,09,09,05,7.10
2018,03,09,09,06,7.10
2018,03,09,09,07,7.10
2018,03,09,09,08,7.10
2018,03,09,09,09,7.20
2018,03,09,09,10,7.20
2018,03,09,09,11,7.30
2018,03,09,09,12,7.30
2018,03,09,09,13,7.40
2018,03,09,09,14,7.40
2018,03,09,09,15,7.50
2018,03,09,09,16,7.60
2018,03,09,09,17,7.60
2018,03,09,09,18,7.60
2018,03,09,09,19,7.70
2018,03,09,09,20,7.70
2018,03,09,09,21,7.70
2018,03,09,09,22,7.70
2018,03,09,09,23,7.70
2018,03,09,09,24,7.70
2018,03,09,09,25,7.60
2018,03,09,09,26,7.60
2018,03,09,09,27,7.50
2018,03,09,09,28,7.50
2018,03,09,09,29,7.50
2018,03,09,09,30,7.50
2018,03,09,09,31,7.60
2018,03,09,09,32,7.60
2018,03,09,09,33,7.60
2018,03,09,09,34,7.60
2018,03,09,09,35,7.70
2018,03,09,09,36,7.80
2018,03,09,09,37,7.90
2018,03,09,09,38,7.90
2018,03,09,09,39,8.00
2018,03,09,09,40,8.00
2018,03,09,09,41,8.00
2018,03,09,09,42,8.10
2018,03,09,09,43,8.10
2018,03,09,09,44,8.20
2018,03,09,09,45,8.20
2018,03,09,09,46,8.10
2018,03,09,09,47,8.00
2018,03,09,09,48,7.90
2018,03,09,09,49,7.90
2018,03,09,09,50,8.00
2018,03,09,09,51,8.00
2018,03,09,09,52,8.10
2018,03,09,09,53,8.20
2018,03,09,09,54,8.20
2018,03,09,09,55,8.20
2018,03,09,09,56,8.20
2018,03,09,09,57,8.10
2018,03,09,09,58,8.10
2018,03,09,09,59,8.10
2018,03,09,10,00,8.10
2018,03,09,10,01,8.10
2018,03,09,10,02,8.10
2018,03,09,10,03,8.10
2018,03,09,10,04,8.10
2018,03,09,10,05,8.10
2018,03,09,10,06,8.10
2018,03,09,10,07,8.00
2018,03,09,10,08,7.90
2018,03,09,10,09,7.90
2018,03,09,10,10,8.00
2018,03,09,10,11,8.10
2018,03,09,10,12,8.20
2018,03,09,10,13,8.30
2018,03,09,10,14,8.40
2018,03,09,10,15,8.40
2018,03,09,10,16,8.50
2018,03,09,10,17,8.50
2018,03,09,10,18,8.50
2018,03,09,10,19,8.50
2018,03,09,10,20,8.60
2018,03,09,10,21,8.60
2018,03,09,10,22,8.60
2018,03,09,10,23,8.70
2018,03,09,10,24,8.70
2018,03,09,10,25,8.70
2018,03,09,10,26,8.60
2018,03,09,10,27,8.50
2018,03,09,10,28,8.50
2018,03,09,10,29,8.50
2018,03,09,10,30,8.50
2018,03,09,10,31,8.50
2018,03,09,10,32,8.60
2018,03,09,10,33,8.60
2018,03,09,10,34,8.60
2018,03,09,10,35,8.60
2018,03,09,10,36,8.70
2018,03,09,10,37,8.80
2018,03,09,10,38,8.80
2018,03,09,10,39,8.80
2018,03,09,10,40,8.80
2018,03,09,10,41,8.90
2018,03,09,10,42,8.90
2018,03,09,10,43,8.90
2018,03,09,10,44,8.90
2018,03,09,10,45,8.90
2018,03,09,10,46,9.00
2018,03,09,10,47,9.10
2018,03,09,10,48,9.20
2018,03,09,10,49,9.20
2018,03,09,10,50,9.30
2018,03,09,10,51,9.30
2018,03,09,10,52,9.30
2018,03,09,10,53,9.40
2018,03,09,10,54,9.40
2018,03,09,10,55,9.50
2018,03,09,10,56,9.60
2018,03,09,10,57,9.60
2018,03,09,10,58,9.60
2018,03,09,10,59,9.60
2018,03,09,11,00,9.60
2018,03,09,11,01,9.60
2018,03,09,11,02,9.60
2018,03,09,11,03,9.50
2018,03,09,11,04,9.40
2018,03,09,11,05,9.30
2018,03,09,11,06,9.20
2018,03,09,11,07,9.20
2018,03,09,11,08,9.10
2018,03,09,11,09,9.10
2018,03,09,11,10,9.10
2018,03,09,11,11,9.10
2018,03,09,11,12,9.10
2018,03,09,11,13,9.20
2018,03,09,11,14,9.20
2018,03,09,11,15,9.20
2018,03,09,11,16,9.20
2018,03,09,11,17,9.30
2018,03,09,11,18,9.30
2018,03,09,11,19,9.40
2018,03,09,11,20,9.50
2018,03,09,11,21,9.60
2018,03,09,11,22,9.60
2018,03,09,11,23,9.60
2018,03,09,11,24,9.60
2018,03,09,11,25,9.50
2018,03,09,11,26,9.50
2018,03,09,11,27,9.60
2018,03,09,11,28,9.60
2018,03,09,11,29,9.70
2018,03,09,11,30,9.80
2018,03,09,11,31,9.80
2018,03,09,11,32,9.90
2018,03,09,11,33,10.00
2018,03,09,11,34,10.10
2018,03,09,11,35,10.20
2018,03,09,11,36,10.20
2018,03,09,11,37,10.20
2018,03,09,11,38,10.10
2018,03,09,11,39,10.00
2018,03,09,11,40,9.90
2018,03,09,11,41,9.80
2018,03,09,11,42,9.80
2018,03,09,11,43,9.90
2018,03,09,11,44,9.90
2018,03,09,11,45,10.00
2018,03,09,11,46,10.10
2018,03,09,11,47,10.20
2018,03,09,11,48,10.20
2018,03,09,11,49,10.20
2018,03,09,11,50,10.20
2018,03,09,11,51,10.30
2018,03,09,11,52,10.30
2018,03,09,11,53,10.30
2018,03,09,11,54,10.30
2018,03,09,11,55,10.30
2018,03,09,11,56,10.30
2018,03,09,11,57,10.30
2018,03,09,11,58,10.30
2018,03,09,11,59,10.30
2018,03,09,12,00,10.20
2018,03,09,12,01,10.20
2018,03,09,12,02,10.10
2018,03,09,12,03,10.10
2018,03,09,12,04,10.10
2018,03,09,12,05,10.10
2018,03,09,12,06,10.00
2018,03,09,12,07,10.00
2018,03,09,12,08,9.90
2018,03,09,12,09,10.00
2018,03,09,12,10,10.00
2018,03,09,12,11,10.00
2018,03,09,12,12,10.00
2018,03,09,12,13,10.00
2018,03,09,12,14,10.00
2018,03,09,12,15,10.00
2018,03,09,12,16,10.00
2018,03,09,12,17,10.00
2018,03,09,12,18,10.00
2018,03,09,12,19,10.00
2018,03,09,12,20,10.00
2018,03,09,12,21,9.90
2018,03,09,12,22,9.80
2018,03,09,12,23,9.80
2018,03,09,12,24,9.80
2018,03,09,12,25,9.80
2018,03,09,12,26,9.80
2018,03,09,12,27,9.80
2018,03,09,12,28,9.80
2018,03,09,12,29,9.70
2018,03,09,12,30,9.80
2018,03,09,12,31,9.80
2018,03,09,12,32,9.90
2018,03,09,12,33,9.90
2018,03,09,12,34,10.00
2018,03,09,12,35,10.00
2018,03,09,12,36,9.90
2018,03,09,12,37,9.90
2018,03,09,12,38,9.80
2018,03,09,12,39,9.80
2018,03,09,12,40,9.80
2018,03,09,12,41,9.80
2018,03,09,12,42,9.80
2018,03,09,12,43,9.80
2018,03,09,12,44,9.70
2018,03,09,12,45,9.70
2018,03,09,12,46,9.70
2018,03,09,12,47,9.80
2018,03,09,12,48,9.80
2018,03,09,12,49,9.80
2018,03,09,12,50,9.80
2018,03,09,12,51,9.80
2018,03,09,12,52,9.80
2018,03,09,12,53,9.80
2018,03,09,12,54,9.80
2018,03,09,12,55,9.80
2018,03,09,12,56,9.80
2018,03,09,12,57,9.80
2018,03,09,12,58,9.70
2018,03,09,12,59,9.70
2018,03,09,13,00,9.70
2018,03,09,13,01,9.70
2018,03,09,13,02,9.70
2018,03,09,13,03,9.70
2018,03,09,13,04,9.70
2018,03,09,13,05,9.70
2018,03,09,13,06,9.70
2018,03,09,13,07,9.70
2018,03,09,13,08,9.80
2018,03,09,13,09,9.80
2018,03,09,13,10,9.90
2018,03,09,13,11,9.90
2018,03,09,13,12,9.90
2018,03,09,13,13,10.00
2018,03,09,13,14,10.10
2018,03,09,13,15,10.10
2018,03,09,13,16,10.10
2018,03,09,13,17,10.20
2018,03,09,13,18,10.30
2018,03,09,13,19,10.40
2018,03,09,13,20,10.40
2018,03,09,13,21,10.50
2018,03,09,13,22,10.50
2018,03,09,13,23,10.50
2018,03,09,13,24,10.50
2018,03,09,13,25,10.50
2018,03,09,13,26,10.50
2018,03,09,13,27,10.40
2018,03,09,13,28,10.50
2018,03,09,13,29,10.50
2018,03,09,13,30,10.60
2018,03,09,13,31,10.70
2018,03,09,13,32,10.80
2018,03,09,13,33,10.80
2018,03,09,13,34,10.90
2018,03,09,13,35,11.00
2018,03,09,13,36,11.10
2018,03,09,13,37,11.00
2018,03,09,13,38,10.90
2018,03,09,13,39,10.80
2018,03,09,13,40,10.70
2018,03,09,13,41,10.60
2018,03,09,13,42,10.50
2018,03,09,13,43,10.40
2018,03,09,13,44,10.40
2018,03,09,13,45,10.40
2018,03,09,13,46,10.40
2018,03,09,13,47,10.40
2018,03,09,13,48,10.30
2018,03,09,13,49,10.30
2018,03,09,13,50,10.40
2018,03,09,13,51,10.50
2018,03,09,13,52,10.50
2018,03,09,13,53,10.50
2018,03,09,13,54,10.50
2018,03,09,13,55,10.50
2018,03,09,13,56,10.50
2018,03,09,13,57,10.50
2018,03,09,13,58,10.50
2018,03,09,13,59,10.50
2018,03,09,14,00,10.50
2018,03,09,14,01,10.50
2018,03,09,14,02,10.50
2018,03,09,14,03,10.50
2018,03,09,14,04,10.60
2018,03,09,14,05,10.50
2018,03,09,14,06,10.50
2018,03,09,14,07,10.50
2018,03,09,14,08,10.50
2018,03,09,14,09,10.50
2018,03,09,14,10,10.40
2018,03,09,14,11,10.30
2018,03,09,14,12,10.20
2018,03,09,14,13,10.20
2018,03,09,14,14,10.20
2018,03,09,14,15,10.20
2018,03,09,14,16,10.20
2018,03,09,14,17,10.20
2018,03,09,14,18,10.20
2018,03,09,14,19,10.30
2018,03,09,14,20,10.30
2018,03,09,14,21,10.40
2018,03,09,14,22,10.40
2018,03,09,14,23,10.40
2018,03,09,14,24,10.40
2018,03,09,14,25,10.30
2018,03,09,14,26,10.20
2018,03,09,14,27,10.20
2018,03,09,14,28,10.20
2018,03,09,14,29,10.20
2018,03,09,14,30,10.10
2018,03,09,14,31,9.90
2018,03,09,14,32,9.80
2018,03,09,14,33,9.70
2018,03,09,14,34,9.50
2018,03,09,14,35,9.50
2018,03,09,14,36,9.40
2018,03,09,14,37,9.40
2018,03,09,14,38,9.40
2018,03,09,14,39,9.40
2018,03,09,14,40,9.40
2018,03,09,14,41,9.50
2018,03,09,14,42,9.50
2018,03,09,14,43,9.60
2018,03,09,14,44,9.50
2018,03,09,14,45,9.60
2018,03,09,14,46,9.60
2018,03,09,14,47,9.70
2018,03,09,14,48,9.80
2018,03,09,14,49,9.80
2018,03,09,14,50,9.80
2018,03,09,14,51,9.90
2018,03,09,14,52,9.90
2018,03,09,14,53,9.90
2018,03,09,14,54,10.00
2018,03,09,14,55,10.00
2018,03,09,14,56,10.10
2018,03,09,14,57,10.10
2018,03,09,14,58,10.10
2018,03,09,14,59,10.10
2018,03,09,15,00,10.10
2018,03,09,15,01,10.00
2018,03,09,15,02,10.00
2018,03,09,15,03,9.90
2018,03,09,15,04,9.80
2018,03,09,15,05,9.80
2018,03,09,15,06,9.80
2018,03,09,15,07,9.70
2018,03,09,15,08,9.70
2018,03,09,15,09,9.70
2018,03,09,15,10,9.70
2018,03,09,15,11,9.70
2018,03,09,15,12,9.70
2018,03,09,15,13,9.70
2018,03,09,15,14,9.70
2018,03,09,15,15,9.70
2018,03,09,15,16,9.70
2018,03,09,15,17,9.70
2018,03,09,15,18,9.70
2018,03,09,15,19,9.70
2018,03,09,15,20,9.70
2018,03,09,15,21,9.70
2018,03,09,15,22,9.80
2018,03,09,15,23,9.90
2018,03,09,15,24,10.00
2018,03,09,15,25,10.00
2018,03,09,15,26,10.10
2018,03,09,15,27,10.10
2018,03,09,15,28,10.00
2018,03,09,15,29,10.00
2018,03,09,15,30,10.00
2018,03,09,15,31,10.00
2018,03,09,15,32,10.00
2018,03,09,15,33,10.00
2018,03,09,15,34,10.10
2018,03,09,15,35,10.10
2018,03,09,15,36,10.10
2018,03,09,15,37,10.10
2018,03,09,15,38,10.00
2018,03,09,15,39,10.10
2018,03,09,15,40,10.10
2018,03,09,15,41,10.10
2018,03,09,15,42,10.00
2018,03,09,15,43,9.90
2018,03,09,15,44,9.90
2018,03,09,15,45,9.70
2018,03,09,15,46,9.60
2018,03,09,15,47,9.50
2018,03,09,15,48,9.50
2018,03,09,15,49,9.40
2018,03,09,15,50,9.40
2018,03,09,15,51,9.30
2018,03,09,15,52,9.30
2018,03,09,15,53,9.40
2018,03,09,15,54,9.40
2018,03,09,15,55,9.40
2018,03,09,15,56,9.40
2018,03,09,15,57,9.40
2018,03,09,15,58,9.30
2018,03,09,15,59,9.30
2018,03,09,16,00,9.30
2018,03,09,16,01,9.20
2018,03,09,16,02,9.20
2018,03,09,16,03,9.20
2018,03,09,16,04,9.20
2018,03,09,16,05,9.20
2018,03,09,16,06,9.20
2018,03,09,16,07,9.10
2018,03,09,16,08,9.10
2018,03,09,16,09,9.10
2018,03,09,16,10,9.10
2018,03,09,16,11,9.10
2018,03,09,16,12,9.10
2018,03,09,16,13,9.10
2018,03,09,16,14,9.10
2018,03,09,16,15,9.10
2018,03,09,16,16,9.10
2018,03,09,16,17,9.10
2018,03,09,16,18,9.10
2018,03,09,16,19,9.10
2018,03,09,16,20,9.00
2018,03,09,16,21,9.00
2018,03,09,16,22,8.90
2018,03,09,16,23,8.90
2018,03,09,16,24,8.90
2018,03,09,16,25,8.80
2018,03,09,16,26,8.80
2018,03,09,16,27,8.80
2018,03,09,16,28,8.80
2018,03,09,16,29,8.70
2018,03,09,16,30,8.70
2018,03,09,16,31,8.60
2018,03,09,16,32,8.60
2018,03,09,16,33,8.60
2018,03,09,16,34,8.60
2018,03,09,16,35,8.60
2018,03,09,16,36,8.60
2018,03,09,16,37,8.60
2018,03,09,16,38,8.60
2018,03,09,16,39,8.60
2018,03,09,16,40,8.60
2018,03,09,16,41,8.70
2018,03,09,16,42,8.70
2018,03,09,16,43,8.70
2018,03,09,16,44,8.70
2018,03,09,16,45,8.70
2018,03,09,16,46,8.70
2018,03,09,16,47,8.70
2018,03,09,16,48,8.70
2018,03,09,16,49,8.70
2018,03,09,16,50,8.70
2018,03,09,16,51,8.70
2018,03,09,16,52,8.70
2018,03,09,16,53,8.60
2018,03,09,16,54,8.60
2018,03,09,16,55,8.60
2018,03,09,16,56,8.60
2018,03,09,16,57,8.60
2018,03,09,16,58,8.60
2018,03,09,16,59,8.60
2018,03,09,17,00,8.60
2018,03,09,17,01,8.60
2018,03,09,17,02,8.60
2018,03,09,17,03,8.60
2018,03,09,17,04,8.60
2018,03,09,17,05,8.60
2018,03,09,17,06,8.60
2018,03,09,17,07,8.60
2018,03,09,17,08,8.60
2018,03,09,17,09,8.50
2018,03,09,17,10,8.50
2018,03,09,17,11,8.50
2018,03,09,17,12,8.50
2018,03,09,17,13,8.50
2018,03,09,17,14,8.50
2018,03,09,17,15,8.50
2018,03,09,17,16,8.50
2018,03,09,17,17,8.40
2018,03,09,17,18,8.40
2018,03,09,17,19,8.40
2018,03,09,17,20,8.40
2018,03,09,17,21,8.40
2018,03,09,17,22,8.40
2018,03,09,17,23,8.30
2018,03,09,17,24,8.30
2018,03,09,17,25,8.30
2018,03,09,17,26,8.30
2018,03,09,17,27,8.30
2018,03,09,17,28,8.30
2018,03,09,17,29,8.30
2018,03,09,17,30,8.30
2018,03,09,17,31,8.30
2018,03,09,17,32,8.30
2018,03,09,17,33,8.30
2018,03,09,17,34,8.30
2018,03,09,17,35,8.20
2018,03,09,17,36,8.20
2018,03,09,17,37,8.20
2018,03,09,17,38,8.20
2018,03,09,17,39,8.20
2018,03,09,17,40,8.20
2018,03,09,17,41,8.20
2018,03,09,17,42,8.20
2018,03,09,17,43,8.20
2018,03,09,17,44,8.20
2018,03,09,17,45,8.20
2018,03,09,17,46,8.20
2018,03,09,17,47,8.20
2018,03,09,17,48,8.10
2018,03,09,17,49,8.10
2018,03,09,17,50,8.10
2018,03,09,17,51,8.10
2018,03,09,17,52,8.20
2018,03,09,17,53,8.20
2018,03,09,17,54,8.10
2018,03,09,17,55,8.10
2018,03,09,17,56,8.10
2018,03,09,17,57,8.10
2018,03,09,17,58,8.10
2018,03,09,17,59,8.10